Location: Recife
(8.0585°S, 34.8848°W)
Time: 09:26:27
(UTC-03:00)

Courier 1B Rocket - Pass Details

Date: 15 April 2026
Orbit: 920 x 1201 km, 28.2° (Epoch: 13 May)

Event Time Altitude Azimuth Distance (km) Brightness Sun altitude
Rises 04:43:57 0° 294° (WNW) 3,562 - -10.1°
Exits shadow 04:45:39 - 293° (WNW) 2,947 7.0 -9.7°
Reaches altitude 10° 04:46:31 10° 292° (WNW) 2,639 6.8 -9.5°
Maximum altitude 04:52:51 73° 208° (SSW) 1,013 5.0 -7.9°
Drops below altitude 10° 04:59:38 10° 124° (ESE) 2,813 8.2 -6.3°
Sets 05:02:27 0° 122° (ESE) 3,811 9.0 -5.6°
